Back to catalog

SL-8 R/B

AlivePO
NORAD 17160·ROCKET BODY·🇷🇺 Russia

Launched Nov 24, 1986 from Plesetsk Cosmodrome

Loading…

Next Passes (next 24 hours)

TLE

FreshSource: Space-Track

Epoch: Sep 14, 2026, 11:56 UTC

1 17160U 86093B   26257.49781226 -.00000087  00000-0 -10711-3 0  9992
2 17160  82.9233  79.2041 0040094  97.5983 291.6863 13.74931244996484

Track SL-8 R/B in real time with AllMySat

Download on the App Store